Regional Weather Roundup
Issued by NWS

Home | Current Version | Previous Version | Graphics & Text | Print | Product List | Glossary On
Versions: 1 2 3 4 5 6 7 8 9 10 11 12 13 14 15 16 17 18 19 20 21 22 23 24 25 26 27 28 29 30 31 32 33 34 35 36 37 38 39 40 41 42 43 44 45 46 47 48 49 50
000
ASUS43 KLMK 310202
RWRKY
KENTUCKY REGIONAL WEATHER ROUNDUP
NATIONAL WEATHER SERVICE LOUISVILLE KY
1000 PM EDT THU OCT 30 2014

NOTE "FAIR" INDICATES FEW OR NO CLOUDS BELOW 12,000 FEET
WITH NO SIGNIFICANT WEATHER AND/OR OBSTRUCTIONS TO VISIBILITY.

KYZ001>023-026-027-061>063-070>075-310300-
WESTERN AND SOUTH CENTRAL KENTUCKY

CITY           SKY/WX    TMP DP  RH WIND       PRES   REMARKS
PADUCAH        LGT RAIN  54  49  83 N6        30.04S
HENDERSON      CLOUDY    50  41  71 CALM      30.04S
OWENSBORO      CLOUDY    52  42  68 CALM      30.05S
HOPKINSVILLE   PTCLDY    53  44  70 W3        30.05S
BOWLING GREEN  MOCLDY    46  39  76 CALM      30.05S
GLASGOW        NOT AVBL
$$

KYZ024-025-028>034-038-045-046-053-310300-
NORTH CENTRAL KENTUCKY

CITY           SKY/WX    TMP DP  RH WIND       PRES   REMARKS
LOUISVILLE/SDF MOCLDY    51  37  58 SE9       30.05S
LOUISVILLE/LOU CLOUDY    48  39  71 CALM      30.06S
FORT KNOX      CLOUDY    49  39  66 N1        30.04S
$$

KYZ035>037-039>044-047>052-055>060-089>105-310300-
NORTHEAST KENTUCKY

CITY           SKY/WX    TMP DP  RH WIND       PRES   REMARKS
LEXINGTON      CLEAR     46  36  68 SE3       30.06S
COVINGTON      PTCLDY    42  33  70 CALM      30.05S
FRANKFORT      CLEAR     42  36  79 CALM      30.05S
$$

KYZ054-064>069-076>088-106>120-310300-
SOUTHEAST KENTUCKY

CITY           SKY/WX    TMP DP  RH WIND       PRES   REMARKS
JACKSON        CLEAR     44  34  67 CALM      30.05S
LONDON         PTCLDY    46  36  68 NE3       30.04F
SOMERSET       CLEAR     45  36  70 N3        30.06F
MIDDLESBORO    NOT AVBL
MONTICELLO     NOT AVBL
$$




USA.gov is the U.S. government's official web portal to all federal, state and local government web resources and services.